Starlink 4646

operational
NORAD ID: 53737 Int'l Des: 2022-107 Owner: SPXS Country: US Constellation: starlink
LEOCIRCULAR

About Starlink 4646

Description loading...

Live Position

Loading 3D Globe...

Upcoming Passes

Altitude History

Altitude vs Time

uPlot chart will show altitude changes over time

Two-Line Element Set

1 53737U 22107AP 26036.55480697 .01490835 13074-2 25616-2 0 9997
2 53737 53.1819 336.3466 0008576 142.6681 217.4949 16.02046503190754
Epoch: Feb 5, 2026 • Age: 12 hours

Current Status

Altitude 272.7 km
Velocity 7.74 km/s
Sub-Earth Point -12.03°S, 170.09°E
Launch Date Sep 5, 2022
Age 3.4 years
Type internet

Technical Details

Classification Payload
Mass 305.00 kg
Dry Mass 290.00 kg
Total Mass 305.00 kg
Length 0.20 m
Diameter 2.80 m
Span 9.00 m
Shape Box + pan
Manufacturer SPXS
Bus Type Starlink
Phase Status In Orbit
Owner/State SPXS/US

Large Constellations

Loading constellations...